Regional Weather Roundup
Issued by NWS Charleston, SC

Current Version | Previous Version | Graphics & Text | Print | Product List | Glossary On
Versions: 1 2 3 4 5 6 7 8 9 10 11 12 13 14 15 16 17 18 19 20 21 22 23 24 25 26 27 28 29 30 31 32 33 34 35 36 37 38 39 40 41 42 43 44 45 46 47 48 49 50
000
ASUS42 KCHS 181427
RWRCHS

REGIONAL WEATHER ROUNDUP
NATIONAL WEATHER SERVICE CHARLESTON SC
1000 AM EDT WED OCT 18 2017

NOTE: "FAIR" INDICATES FEW OR NO CLOUDS BELOW 12,000 FEET WITH NO
SIGNIFICANT WEATHER AND/OR OBSTRUCTIONS TO VISIBILITY.

NOT ALL STATIONS ARE QUALITY CONTROLLED. USE DATA WITH CAUTION...
ESPECIALLY DEWPOINT OBSERVATIONS.

SCZ027-030-031-034>040-042>050-181500-
...SOUTHEAST SOUTH CAROLINA...

CITY           SKY/WX    TMP DP  RH WIND       PRES   REMARKS
N CHARLESTON   MOSUNNY   60  49  66 NE10      30.31R
WATERFRONT PRK   N/A     60  53  77 N12       30.16R
JOHNS ISLAND   FAIR      63  52  67 N10       30.30F
PINOPOLIS        N/A     55  52  88 NE15      30.24R
MONCKS CORNER  FAIR      59  46  63 NE7       30.33R
SUMMERVILLE    FAIR      59  50  72 N8        30.34R
BEAUFORT MCAS  SUNNY     62  48  60 MISG      30.31R
BEAUFORT ARPT  FAIR      63  50  63 NE15      30.30S
HILTON HEAD IS SUNNY     63  50  63 NE12G21     N/A
WALTERBORO     SUNNY     59  45  58 NE6       30.34R
ALLENDALE      NOT AVBL

...SOUTHERN MIDLANDS AND PEE DEE...

CITY           SKY/WX    TMP DP  RH WIND       PRES   REMARKS
GEORGETOWN     FAIR      59  50  72 NE5       30.33R
KINGSTREE      FAIR      55  46  71 NE8       30.35S
ORANGEBURG     SUNNY     55  42  61 NE9       30.35R
BARNWELL         N/A     59  45  58 NE12      30.35R
AIKEN          FAIR      55  43  62 NE9       30.39R
MANNING        HAZE      55  48  76 MISG      30.35S VSB 1/4
COLUMBIA       SUNNY     57  45  64 NE6       30.36R
SUMTER         SUNNY     56  43  61 NE10      30.34R
FLORENCE       SUNNY     54  44  69 NE10      30.37R
MYRTLE BEACH   SUNNY     60  48  64 NE12      30.34R
N MYRTLE BEACH SUNNY     59  49  69 NE13      30.33R

$$

GAZ063-065-086>088-099>101-113>116-118-119-134>141-150-181500-
...SOUTHEAST GEORGIA...

CITY           SKY/WX    TMP DP  RH WIND       PRES   REMARKS
SAVANNAH ARPT  SUNNY     62  48  60 NE14      30.29R
HUNTER AAF     SUNNY     62  49  63 NE9       30.26R
FORT STEWART   SUNNY     62  48  61 NE13      30.27R
STATESBORO     SUNNY     61  42  49 NE7       30.33R
SYLVANIA       SUNNY     60  47  60 E12G17    30.33R
CLAXTON        FAIR      63  48  59 NE9G18    30.31R

...CSRA...CENTRAL AND FAR SOUTHEAST GEORGIA...

CITY           SKY/WX    TMP DP  RH WIND       PRES   REMARKS
THOMSON        SUNNY     56  45  64 SE7       30.42R
AUGUSTA-BUSH   SUNNY     58  46  64 NE3       30.36R
AUGUSTA-DANIEL SUNNY     59  42  53 VRB6      30.36R
SWAINSBORO     FAIR      59  45  58 MISG      30.34S
VIDALIA        SUNNY     63  46  55 NE7       30.32R
EASTMAN        FAIR      62  31  31 E12       30.33S
HAZLEHURST     FAIR      62  37  40 NE12G17   30.30R
ALMA           SUNNY     61  47  59 NE9G17    30.28R
WAYCROSS       SUNNY     65  49  55 NE10      30.27R
JESUP          NOT AVBL
BAXLEY         FAIR      59  46  63 NE13G18   30.29R
BRUNSWICK      SUNNY     68  57  68 NE12G17   30.26R
SAINT SIMONS   CLOUDY    72  65  78 NE16G25   30.23R

$$

SCZ027-028-034-036>038-045-046-048>050-GAZ119-141-181500-
...LAKE AND SUPPLEMENTAL COASTAL OBSERVATIONS...

STATION/POSITION TIME  TEMP    WIND        PRES    WAVE   SWELL
                       AIR SEA DIR/SP/G            HT/PER HT/PER/DIR
                 (UTC) (F)     (DEG/KT/KT) (MB)    (FT/S) (FT/S/D)
WINYAH BAY       1330   58      20/  8     1026.0S
LAKE MURRAY      1330   54      30/  2/  5 1027.4S
ACE BASIN NERRS  1345   60     360/  5     1026.0S
FORT PULASKI     1400   63 74   40/ 13/ 17 1025.7
SAPELO ISLAND    1400   67      30/ 14     1024.0

$$

ANZ835-935-AMZ111-154-330-350-352-354-370-450-454-472-181500-
...C-MAN AND BUOY OBSERVATIONS...

STATION/POSITION TIME  TEMP    WIND        PRES    WAVE   SWELL
                       AIR SEA DIR/SP/G            HT/PER HT/PER/DIR
                 (UTC) (F)     (DEG/KT/KT) (MB)    (FT/S) (FT/S/D)
BUOY 41004       1410   71 80   30/ 17/ 23 1024.3
BUOY 41008       1350   71 78   50/ 23/ 27 1022.8R   7/11   3/130/11
FOLLY BEACH CMAN 1400   62      10/ 15/ 18 1026.4R
CAPERS NEARSHORE 1408   61 74   30/ 19/ 25 1025.3R
FRIPP NEARSHORE  1408   65      40/ 16/ 21   N/A


STATION/POSITION TIME  TEMP    WIND        PRES    WAVE   SWELL
                       AIR SEA DIR/SP/G            HT/PER HT/PER/DIR
                 (UTC) (F)     (DEG/KT/KT) (MB)    (FT/S) (FT/S/D)
5E ST. MARYS GA  1400      78                N/A     8/ 6   2/110/11
FRYING PAN BUOY  1410   69 76   30/ 21/ 27 1024.5
BUOY 41025       1350   68 81   20/ 19/ 25 1025.7R   6/ 8   3/ 60/ 8
CAPE LOOKOUT NC  1400   65      20/ 13/ 17 1026.2R
BUOY 41002       1350   75 80   50/ 25/ 29 1020.4R   9/ 9   5/ 90/ 9
BUOY 41010       NOT AVBL
ST AUGUSTINE FL  1400   78 79   50/ 25/ 27 1021.5R


$$




USA.gov is the U.S. government's official web portal to all federal, state and local government web resources and services.